Location: Eckley Miners' Village
(40.9930°N, 75.8630°W)
Time: 04:28:56
(UTC-04:00)

Vanguard 1 Rocket - Visible Passes

Search period start: 14 March 2026 00:00
Search period end: 24 March 2026 00:00
Orbit: 653 x 4214 km, 34.3° (Epoch: 13 March)

Date Brightness Start Highest point End Pass type
(mag) Time Alt. Az. Time Alt. Az. Time Alt. Az.
15 Mar 9.4 06:34:30 10° SSW 06:38:34 17° SSE 06:41:47 10° ESE visible
16 Mar 9.9 05:23:16 10° S 05:26:14 12° SSE 05:28:45 10° SE visible
17 Mar 9.0 06:33:42 10° SW 06:39:05 23° SSE 06:43:00 10° ESE visible
18 Mar 9.6 05:21:16 10° SSW 05:26:46 18° SSE 05:30:49 10° ESE visible
19 Mar 10.1 04:13:01 14° SSE 04:14:07 14° SSE 04:17:47 10° SE visible
19 Mar 8.7 06:33:14 10° SW 06:39:36 30° SSE 06:43:57 10° ESE visible
20 Mar 9.3 05:21:54 14° SSW 05:27:18 25° SSE 05:32:06 10° ESE visible
21 Mar 9.8 04:13:32 20° SSE 04:14:39 20° SSE 04:19:51 10° ESE visible
21 Mar 8.5 06:32:58 10° SW 06:40:07 37° S 06:44:44 10° ESE visible
22 Mar 10.4 03:05:09 12° SE 03:05:09 12° SE 03:06:33 10° ESE visible
22 Mar 9.0 05:22:18 18° SW 05:27:49 32° SSE 05:33:06 10° ESE visible
23 Mar 9.5 04:13:51 26° S 04:15:10 27° SSE 04:21:11 10° ESE visible
23 Mar 8.3 06:32:50 10° WSW 06:40:37 42° S 06:45:27 10° ESE visible
